Yeovilton, United Kingdom

6:01 AM BST on July 25, 2017 (GMT +0100)
Yeovil Radar Navy

Weather History for EGDY - September, 2013

Change the Weather History Date:

Monday, September 16, 2013

  Actual Average Record
Temperature  
Mean Temperature 53 °F -  
Max Temperature 59 °F 60 °F 77 °F (2003)
Min Temperature 47 °F 46 °F 39 °F (2004)
Degree Days  
Heating Degree Days 12    
Growing Degree Days 3 (Base 50)    
Moisture  
Dew Point 45 °F    
Average Humidity 75    
Maximum Humidity 87    
Minimum Humidity 46    
Precipitation  
Precipitation 0.16 in - - ()
Sea Level Pressure  
Sea Level Pressure 29.68 in    
Wind  
Wind Speed 11 mph ()    
Max Wind Speed 29 mph    
Max Gust Speed 40 mph    
Visibility 6.4 miles    
Events Rain    
Averages and records for this station are not official NWS values.
T = Trace of Precipitation, MM = Missing Value Source: Averaged Metar Reports

Daily Weather History Graph

Daily Weather History Graph

Search for Another Location

Airport or City:

Trip Planner

Search our weather history database for the weather conditions in past years. The results will help you decide how hot, cold, wet, or windy it might be!

Date:

Astronomy

Sep. 16, 2013 Rise Set
Actual Time 6:47 AM BST 7:22 PM BST
Civil Twilight 6:14 AM BST 7:55 PM BST
Nautical Twilight 5:34 AM BST 8:34 PM BST
Astronomical Twilight 4:52 AM BST 9:16 PM BST
Moon 5:35 PM BST (9/16) 2:58 AM BST (9/16)
Length of Visible Light 13h 41m
Length of Day
12h 34m
Waxing Gibbous, 88% of the Moon is Illuminated
Sep 16
Waxing Gibbous
Sep 19
Full
Sep 27
Last Quarter
Oct 5
New
Oct 12
First Quarter

Hourly Weather History & Observations

Time (BST) Temp. Dew Point Humidity Pressure Visibility Wind Dir Wind Speed Gust Speed Precip Events Conditions
12:50 AM 51 °F 40 °F 57% 29.70 in 12 mi WSW 8.1 mph - -   Partly Cloudy
12:50 AM 51.8 °F 41.0 °F 67% 29.68 in 6.2 mi WSW 8.1 mph - N/A   Scattered Clouds
1:50 AM 50.0 °F 42.8 °F 76% 29.68 in 6.2 mi West 8.1 mph - N/A Rain Light Rain
2:50 AM 50.0 °F 44.6 °F 82% 29.68 in 6.2 mi West 9.2 mph - N/A   Mostly Cloudy
3:50 AM 50 °F 44 °F 74% 29.69 in 5 mi West 13.8 mph - - Rain Heavy Rain Showers
3:50 AM 50.0 °F 44.6 °F 82% 29.68 in 5.0 mi West 13.8 mph - N/A Rain Rain Showers
4:50 AM 48.2 °F 44.6 °F 87% 29.68 in 6.2 mi WSW 1.2 mph - N/A Rain Light Rain Showers
5:50 AM 50.0 °F 44.6 °F 82% 29.65 in 6.2 mi WSW 11.5 mph - N/A Rain Light Rain Showers
6:50 AM 48 °F 45 °F 84% 29.70 in 6 mi WNW 6.9 mph - - Rain Light Rain Showers
6:50 AM 48.2 °F 44.6 °F 87% 29.68 in 6.2 mi WNW 6.9 mph - N/A   Scattered Clouds
7:50 AM 48.2 °F 44.6 °F 87% 29.68 in 6.2 mi West 8.1 mph - N/A   Scattered Clouds
8:50 AM 50.0 °F 44.6 °F 82% 29.68 in 6.2 mi WSW 5.8 mph - N/A   Mostly Cloudy
9:11 AM 50.0 °F 44.6 °F 82% 29.68 in 3.7 mi West 10.4 mph - N/A Rain Rain Showers
9:50 AM 47 °F 44 °F 83% 29.69 in 4 mi West 17.3 mph - - Rain Light Rain Showers
9:50 AM 48.2 °F 42.8 °F 82% 29.68 in 3.7 mi West 17.3 mph - N/A Rain Light Rain Showers
10:25 AM 53.6 °F 46.4 °F 77% 29.68 in 6.2 mi WSW 12.7 mph - N/A Rain Light Rain Showers
10:50 AM 53.6 °F 46.4 °F 77% 29.68 in 4.3 mi West 16.1 mph - N/A Rain Rain Showers
11:28 AM 55.4 °F 46.4 °F 72% 29.65 in 6.2 mi West 19.6 mph - N/A Rain Rain Showers
11:50 AM 57.2 °F 48.2 °F 72% 29.65 in 6.2 mi West 20.7 mph - N/A   Scattered Clouds
12:50 PM 57 °F 46 °F 57% 29.68 in 12 mi WNW 20.7 mph - - Rain Light Rain Showers
12:50 PM 57.2 °F 46.4 °F 67% 29.65 in 6.2 mi WNW 20.7 mph - N/A Rain Light Rain Showers
1:50 PM 59.0 °F 46.4 °F 63% 29.65 in 6.2 mi WNW 26.5 mph - N/A   Scattered Clouds
2:50 PM 59.0 °F 44.6 °F 59% 29.65 in 6.2 mi WNW 26.5 mph 40.3 mph N/A   Scattered Clouds
3:50 PM 58 °F 43 °F 46% 29.68 in 12 mi WNW 28.8 mph - -   Partly Cloudy
3:50 PM 57.2 °F 42.8 °F 59% 29.65 in 6.2 mi WNW 28.8 mph - N/A   Scattered Clouds
4:50 PM 57.2 °F 42.8 °F 59% 29.65 in 6.2 mi WNW 21.9 mph - N/A   Scattered Clouds
5:50 PM 50.0 °F 44.6 °F 82% 29.68 in 5.0 mi West 19.6 mph - N/A Rain Light Rain Showers
6:50 PM 51 °F 45 °F 73% 29.70 in 9 mi WSW 10.4 mph - - Rain Light Rain Showers
6:50 PM 51.8 °F 44.6 °F 76% 29.68 in 6.2 mi WSW 10.4 mph - N/A   Scattered Clouds
7:50 PM 50.0 °F 42.8 °F 76% 29.68 in 6.2 mi WSW 9.2 mph - N/A Rain Light Rain Showers
8:50 PM 50.0 °F 46.4 °F 87% 29.71 in 5.6 mi WSW 5.8 mph - N/A Rain Rain Showers
9:50 PM 49 °F 46 °F 83% 29.71 in 7 mi WSW 4.6 mph - - Rain Light Rain Showers
9:50 PM 50.0 °F 46.4 °F 87% 29.71 in 6.2 mi WSW 4.6 mph - N/A   Scattered Clouds
10:50 PM 50.0 °F 44.6 °F 82% 29.71 in 6.2 mi WSW 5.8 mph - N/A   Mostly Cloudy
11:50 PM 50.0 °F 44.6 °F 82% 29.71 in 6.2 mi West 5.8 mph - N/A   Mostly Cloudy